Time,TemperatureF,DewpointF,PressureIn,WindDirection,WindDirectionDegrees,WindSpeedMPH,WindSpeedGustMPH,Humidity,HourlyPrecipIn,Conditions,Clouds,dailyrainin,SoftwareType,DateUTC
2013-09-20 00:01:00,51.7,0.0,30.01,WSW,248,0.7,0.9,0,0.00,,,0.00,WUHU216HW,2013-09-20 04:01:00,
2013-09-20 00:02:00,51.7,0.0,30.01,WSW,248,0.4,0.9,0,0.00,,,0.00,WUHU216HW,2013-09-20 04:02:00,
2013-09-20 00:07:00,51.7,0.0,30.01,WSW,248,0.0,0.9,0,0.00,,,0.00,WUHU216HW,2013-09-20 04:07:00,
2013-09-20 00:12:00,51.7,0.0,30.01,WSW,248,0.2,0.4,0,0.00,,,0.00,WUHU216HW,2013-09-20 04:12:00,
2013-09-20 00:17:00,51.5,0.0,30.00,WSW,248,0.4,0.7,0,0.00,,,0.00,WUHU216HW,2013-09-20 04:17:00,
2013-09-20 00:22:00,51.5,0.0,30.01,WSW,248,0.4,0.7,0,0.00,,,0.00,WUHU216HW,2013-09-20 04:22:00,
2013-09-20 00:27:00,51.3,0.0,30.01,WSW,248,0.0,0.4,0,0.00,,,0.00,WUHU216HW,2013-09-20 04:27:00,
2013-09-20 00:32:00,51.1,0.0,30.01,West,270,0.0,0.4,0,0.00,,,0.00,WUHU216HW,2013-09-20 04:32:00,
2013-09-20 00:37:00,51.1,0.0,30.02,WNW,293,0.4,0.7,0,0.00,,,0.00,WUHU216HW,2013-09-20 04:37:00,
2013-09-20 00:42:00,50.9,0.0,30.02,WSW,248,0.2,0.7,0,0.00,,,0.00,WUHU216HW,2013-09-20 04:42:00,
2013-09-20 00:47:00,50.8,0.0,30.01,WSW,248,0.0,0.7,0,0.00,,,0.00,WUHU216HW,2013-09-20 04:47:00,
2013-09-20 00:52:00,50.6,0.0,30.01,WNW,293,0.7,0.7,0,0.00,,,0.00,WUHU216HW,2013-09-20 04:52:00,
2013-09-20 00:57:00,50.4,0.0,30.01,WNW,293,0.0,0.9,0,0.00,,,0.00,WUHU216HW,2013-09-20 04:57:00,
2013-09-20 01:02:00,50.4,0.0,30.01,WSW,248,0.2,0.9,0,0.00,,,0.00,WUHU216HW,2013-09-20 05:02:00,
2013-09-20 01:07:00,50.0,0.0,30.01,WSW,248,0.2,0.9,0,0.00,,,0.00,WUHU216HW,2013-09-20 05:07:00,
2013-09-20 01:12:00,50.0,0.0,30.01,WSW,248,0.0,0.4,0,0.00,,,0.00,WUHU216HW,2013-09-20 05:12:00,
2013-09-20 01:17:00,49.9,0.0,30.01,WSW,248,0.0,0.2,0,0.00,,,0.00,WUHU216HW,2013-09-20 05:17:00,
2013-09-20 01:22:00,49.7,0.0,30.01,WSW,248,0.0,0.0,0,0.00,,,0.00,WUHU216HW,2013-09-20 05:22:00,
2013-09-20 01:27:00,49.5,0.0,30.01,WSW,248,0.0,0.0,0,0.00,,,0.00,WUHU216HW,2013-09-20 05:27:00,
2013-09-20 01:32:00,49.3,0.0,30.01,WSW,248,0.0,0.0,0,0.00,,,0.00,WUHU216HW,2013-09-20 05:32:00,
2013-09-20 01:37:00,49.3,0.0,30.01,WSW,248,0.0,0.0,0,0.00,,,0.00,WUHU216HW,2013-09-20 05:37:00,
2013-09-20 01:42:00,49.1,0.0,30.01,WSW,248,0.0,0.0,0,0.00,,,0.00,WUHU216HW,2013-09-20 05:42:00,
2013-09-20 01:47:00,49.0,0.0,30.01,WSW,248,0.0,0.0,0,0.00,,,0.00,WUHU216HW,2013-09-20 05:47:00,
2013-09-20 01:52:00,49.0,0.0,30.01,WSW,248,0.0,0.0,0,0.00,,,0.00,WUHU216HW,2013-09-20 05:52:00,
2013-09-20 01:57:00,48.8,0.0,30.01,WSW,248,0.0,0.0,0,0.00,,,0.00,WUHU216HW,2013-09-20 05:57:00,
2013-09-20 02:02:00,48.8,0.0,30.01,WSW,248,0.0,0.0,0,0.00,,,0.00,WUHU216HW,2013-09-20 06:02:00,
2013-09-20 02:07:00,48.6,0.0,30.01,WSW,248,0.2,0.4,0,0.00,,,0.00,WUHU216HW,2013-09-20 06:07:00,
2013-09-20 02:12:00,48.6,0.0,30.01,WSW,248,0.0,0.4,0,0.00,,,0.00,WUHU216HW,2013-09-20 06:12:00,
2013-09-20 02:17:00,48.6,0.0,30.01,WSW,248,0.0,0.4,0,0.00,,,0.00,WUHU216HW,2013-09-20 06:17:00,
2013-09-20 02:22:00,48.6,0.0,30.01,WSW,248,0.0,0.0,0,0.00,,,0.00,WUHU216HW,2013-09-20 06:22:00,
2013-09-20 02:27:00,48.4,0.0,30.01,WSW,248,0.0,0.0,0,0.00,,,0.00,WUHU216HW,2013-09-20 06:27:00,
2013-09-20 02:32:00,48.2,0.0,30.01,WSW,248,0.0,0.0,0,0.00,,,0.00,WUHU216HW,2013-09-20 06:32:00,
2013-09-20 02:37:00,48.2,0.0,30.01,WSW,248,0.0,0.0,0,0.00,,,0.00,WUHU216HW,2013-09-20 06:37:00,
2013-09-20 02:42:00,48.1,0.0,30.01,WSW,248,0.0,0.0,0,0.00,,,0.00,WUHU216HW,2013-09-20 06:42:00,
2013-09-20 02:47:00,47.9,0.0,30.01,WSW,248,0.0,0.4,0,0.00,,,0.00,WUHU216HW,2013-09-20 06:47:00,
2013-09-20 02:52:00,47.9,0.0,30.00,WSW,248,0.0,0.4,0,0.00,,,0.00,WUHU216HW,2013-09-20 06:52:00,
2013-09-20 02:57:00,47.9,0.0,30.00,WNW,293,0.4,0.7,0,0.00,,,0.00,WUHU216HW,2013-09-20 06:57:00,
2013-09-20 03:02:00,47.9,0.0,30.00,WNW,293,0.0,0.7,0,0.00,,,0.00,WUHU216HW,2013-09-20 07:02:00,
2013-09-20 03:07:00,47.9,0.0,30.00,WNW,293,0.0,0.7,0,0.00,,,0.00,WUHU216HW,2013-09-20 07:07:00,
2013-09-20 03:12:00,47.7,0.0,30.00,NW,315,0.0,0.0,0,0.00,,,0.00,WUHU216HW,2013-09-20 07:12:00,
2013-09-20 03:17:00,47.7,0.0,30.01,NW,315,0.0,0.0,0,0.00,,,0.00,WUHU216HW,2013-09-20 07:17:00,
2013-09-20 03:22:00,47.7,0.0,30.00,NW,315,0.2,0.7,0,0.00,,,0.00,WUHU216HW,2013-09-20 07:22:00,
2013-09-20 03:27:00,47.5,0.0,30.00,NW,315,0.0,0.7,0,0.00,,,0.00,WUHU216HW,2013-09-20 07:27:00,
2013-09-20 03:32:00,47.5,0.0,30.01,WNW,293,0.0,0.4,0,0.00,,,0.00,WUHU216HW,2013-09-20 07:32:00,
2013-09-20 03:37:00,47.5,0.0,30.00,WNW,293,0.0,0.4,0,0.00,,,0.00,WUHU216HW,2013-09-20 07:37:00,
2013-09-20 03:42:00,47.2,0.0,30.00,WNW,293,0.0,0.0,0,0.00,,,0.00,WUHU216HW,2013-09-20 07:42:00,
2013-09-20 03:47:00,47.2,0.0,30.00,WNW,293,0.0,0.0,0,0.00,,,0.00,WUHU216HW,2013-09-20 07:47:00,
2013-09-20 03:52:00,47.0,0.0,30.00,SSW,203,0.4,0.4,0,0.00,,,0.00,WUHU216HW,2013-09-20 07:52:00,
2013-09-20 03:57:00,46.8,0.0,30.00,SSW,203,0.0,0.4,0,0.00,,,0.00,WUHU216HW,2013-09-20 07:57:00,
2013-09-20 04:02:00,46.6,0.0,29.99,SSW,203,0.0,0.4,0,0.00,,,0.00,WUHU216HW,2013-09-20 08:02:00,
2013-09-20 04:07:00,46.4,0.0,30.00,SW,225,0.0,0.7,0,0.00,,,0.00,WUHU216HW,2013-09-20 08:07:00,
2013-09-20 04:12:00,46.4,0.0,30.00,SW,225,0.7,0.7,0,0.00,,,0.00,WUHU216HW,2013-09-20 08:12:00,
2013-09-20 04:17:00,46.4,0.0,30.00,WNW,293,0.7,0.9,0,0.00,,,0.00,WUHU216HW,2013-09-20 08:17:00,
2013-09-20 04:22:00,46.4,0.0,30.00,WNW,293,0.9,1.1,0,0.00,,,0.00,WUHU216HW,2013-09-20 08:22:00,
2013-09-20 04:27:00,46.4,0.0,30.00,NW,315,0.9,1.3,0,0.00,,,0.00,WUHU216HW,2013-09-20 08:27:00,
2013-09-20 04:32:00,46.4,0.0,30.01,NW,315,1.1,1.3,0,0.00,,,0.00,WUHU216HW,2013-09-20 08:32:00,
2013-09-20 04:37:00,46.4,0.0,30.01,West,270,0.7,1.3,0,0.00,,,0.00,WUHU216HW,2013-09-20 08:37:00,
2013-09-20 04:42:00,46.4,0.0,30.01,West,270,0.7,1.3,0,0.00,,,0.00,WUHU216HW,2013-09-20 08:42:00,
2013-09-20 04:47:00,46.4,0.0,30.00,WSW,248,0.7,0.9,0,0.00,,,0.00,WUHU216HW,2013-09-20 08:47:00,
2013-09-20 04:52:00,46.4,0.0,30.00,SW,225,0.2,0.9,0,0.00,,,0.00,WUHU216HW,2013-09-20 08:52:00,
2013-09-20 04:57:00,46.4,0.0,30.00,SW,225,0.0,0.9,0,0.00,,,0.00,WUHU216HW,2013-09-20 08:57:00,
2013-09-20 05:02:00,46.3,0.0,30.00,SW,225,0.0,0.2,0,0.00,,,0.00,WUHU216HW,2013-09-20 09:02:00,
2013-09-20 05:08:00,46.1,0.0,30.00,SW,225,0.0,0.0,0,0.00,,,0.00,WUHU216HW,2013-09-20 09:08:00,
2013-09-20 05:13:00,45.9,0.0,30.00,SW,225,0.0,0.2,0,0.00,,,0.00,WUHU216HW,2013-09-20 09:13:00,
2013-09-20 05:18:00,45.7,0.0,30.00,SW,225,0.0,0.2,0,0.00,,,0.00,WUHU216HW,2013-09-20 09:18:00,
2013-09-20 05:23:00,45.7,0.0,30.00,NW,315,0.7,1.1,0,0.00,,,0.00,WUHU216HW,2013-09-20 09:23:00,
2013-09-20 05:28:00,45.9,0.0,30.00,NW,315,0.7,1.1,0,0.00,,,0.00,WUHU216HW,2013-09-20 09:28:00,
2013-09-20 05:33:00,45.9,0.0,30.00,NW,315,0.4,1.1,0,0.00,,,0.00,WUHU216HW,2013-09-20 09:33:00,
2013-09-20 05:38:00,45.9,0.0,30.00,NW,315,0.0,0.9,0,0.00,,,0.00,WUHU216HW,2013-09-20 09:38:00,
2013-09-20 05:43:00,45.7,0.0,30.01,NW,315,0.0,0.4,0,0.00,,,0.00,WUHU216HW,2013-09-20 09:43:00,
2013-09-20 05:48:00,45.7,0.0,30.01,WNW,293,0.0,0.2,0,0.00,,,0.00,WUHU216HW,2013-09-20 09:48:00,
2013-09-20 05:53:00,45.5,0.0,30.01,WNW,293,0.0,0.0,0,0.00,,,0.00,WUHU216HW,2013-09-20 09:53:00,
2013-09-20 05:58:00,45.4,0.0,30.01,WNW,293,0.0,0.0,0,0.00,,,0.00,WUHU216HW,2013-09-20 09:58:00,
2013-09-20 06:03:00,45.4,0.0,30.01,NW,315,0.4,0.7,0,0.00,,,0.00,WUHU216HW,2013-09-20 10:03:00,
2013-09-20 06:08:00,45.4,0.0,30.01,NW,315,0.4,0.7,0,0.00,,,0.00,WUHU216HW,2013-09-20 10:08:00,
2013-09-20 06:13:00,45.4,0.0,30.01,NW,315,0.7,0.7,0,0.00,,,0.00,WUHU216HW,2013-09-20 10:13:00,
2013-09-20 06:18:00,45.5,0.0,30.02,WSW,248,0.9,1.1,0,0.00,,,0.00,WUHU216HW,2013-09-20 10:18:00,
2013-09-20 06:23:00,45.5,0.0,30.02,West,270,0.7,1.1,0,0.00,,,0.00,WUHU216HW,2013-09-20 10:23:00,
2013-09-20 06:28:00,45.7,0.0,30.02,West,270,0.4,0.9,0,0.00,,,0.00,WUHU216HW,2013-09-20 10:28:00,
2013-09-20 06:33:00,45.7,0.0,30.02,West,270,0.2,0.9,0,0.00,,,0.00,WUHU216HW,2013-09-20 10:33:00,
2013-09-20 06:38:00,45.7,0.0,30.02,West,270,0.0,0.4,0,0.00,,,0.00,WUHU216HW,2013-09-20 10:38:00,
2013-09-20 06:43:00,45.5,0.0,30.02,West,270,0.0,0.4,0,0.00,,,0.00,WUHU216HW,2013-09-20 10:43:00,
2013-09-20 06:48:00,45.5,0.0,30.03,West,270,0.2,0.7,0,0.00,,,0.00,WUHU216HW,2013-09-20 10:48:00,
2013-09-20 06:53:00,45.5,0.0,30.03,West,270,0.0,0.7,0,0.00,,,0.00,WUHU216HW,2013-09-20 10:53:00,
2013-09-20 06:58:00,45.7,0.0,30.03,West,270,0.0,0.2,0,0.00,,,0.00,WUHU216HW,2013-09-20 10:58:00,
2013-09-20 07:03:00,45.7,0.0,30.03,West,270,0.0,0.0,0,0.00,,,0.00,WUHU216HW,2013-09-20 11:03:00,
2013-09-20 07:08:00,45.7,0.0,30.03,West,270,0.0,0.0,0,0.00,,,0.00,WUHU216HW,2013-09-20 11:08:00,
2013-09-20 07:13:00,45.7,0.0,30.03,West,270,0.0,0.0,0,0.00,,,0.00,WUHU216HW,2013-09-20 11:13:00,
2013-09-20 07:18:00,45.7,0.0,30.04,WNW,293,0.0,0.0,0,0.00,,,0.00,WUHU216HW,2013-09-20 11:18:00,
2013-09-20 07:23:00,45.7,0.0,30.03,SW,225,0.0,0.0,0,0.00,,,0.00,WUHU216HW,2013-09-20 11:23:00,
2013-09-20 07:28:00,45.9,0.0,30.03,SW,225,0.0,0.7,0,0.00,,,0.00,WUHU216HW,2013-09-20 11:28:00,
2013-09-20 07:33:00,46.3,0.0,30.03,SW,225,0.0,0.7,0,0.00,,,0.00,WUHU216HW,2013-09-20 11:33:00,
2013-09-20 07:38:00,46.4,0.0,30.02,SW,225,0.0,0.0,0,0.00,,,0.00,WUHU216HW,2013-09-20 11:38:00,
2013-09-20 07:43:00,46.8,0.0,30.02,SW,225,0.0,0.0,0,0.00,,,0.00,WUHU216HW,2013-09-20 11:43:00,
2013-09-20 07:48:00,47.3,0.0,30.03,SW,225,0.0,0.0,0,0.00,,,0.00,WUHU216HW,2013-09-20 11:48:00,
2013-09-20 07:53:00,47.7,0.0,30.03,SW,225,0.0,0.0,0,0.00,,,0.00,WUHU216HW,2013-09-20 11:53:00,
2013-09-20 07:58:00,48.1,0.0,30.03,SW,225,0.0,0.2,0,0.00,,,0.00,WUHU216HW,2013-09-20 11:58:00,
2013-09-20 08:03:00,48.4,0.0,30.03,SW,225,0.0,0.2,0,0.00,,,0.00,WUHU216HW,2013-09-20 12:03:00,
2013-09-20 08:08:00,49.1,0.0,30.03,SW,225,0.0,0.0,0,0.00,,,0.00,WUHU216HW,2013-09-20 12:08:00,
2013-09-20 08:13:00,49.7,0.0,30.03,WNW,293,0.4,1.3,0,0.00,,,0.00,WUHU216HW,2013-09-20 12:13:00,
2013-09-20 08:18:00,50.8,0.0,30.03,SSW,203,0.4,1.3,0,0.00,,,0.00,WUHU216HW,2013-09-20 12:18:00,
2013-09-20 08:23:00,51.5,0.0,30.03,South,180,0.2,1.3,0,0.00,,,0.00,WUHU216HW,2013-09-20 12:23:00,
2013-09-20 08:28:00,52.2,0.0,30.03,SSW,203,0.0,0.7,0,0.00,,,0.00,WUHU216HW,2013-09-20 12:28:00,
2013-09-20 08:33:00,53.3,0.0,30.03,South,180,0.0,0.4,0,0.00,,,0.00,WUHU216HW,2013-09-20 12:33:00,
2013-09-20 08:38:00,54.4,0.0,30.03,South,180,0.7,0.7,0,0.00,,,0.00,WUHU216HW,2013-09-20 12:38:00,
2013-09-20 08:43:00,54.9,0.0,30.03,South,180,0.0,1.1,0,0.00,,,0.00,WUHU216HW,2013-09-20 12:43:00,
2013-09-20 08:48:00,55.4,0.0,30.04,North,0,0.2,1.1,0,0.00,,,0.00,WUHU216HW,2013-09-20 12:48:00,
2013-09-20 08:53:00,56.0,0.0,30.04,SE,135,0.4,1.3,0,0.00,,,0.00,WUHU216HW,2013-09-20 12:53:00,
2013-09-20 08:58:00,56.2,0.0,30.04,NNW,338,1.1,1.3,0,0.00,,,0.00,WUHU216HW,2013-09-20 12:58:00,
2013-09-20 09:03:00,56.3,0.0,30.04,North,0,0.2,1.3,0,0.00,,,0.00,WUHU216HW,2013-09-20 13:03:00,
2013-09-20 09:08:00,56.7,0.0,30.05,WNW,293,0.0,2.2,0,0.00,,,0.00,WUHU216HW,2013-09-20 13:08:00,
2013-09-20 09:13:00,57.1,0.0,30.05,NNW,338,0.7,2.2,0,0.00,,,0.00,WUHU216HW,2013-09-20 13:13:00,
2013-09-20 09:18:00,57.6,0.0,30.05,WSW,248,1.6,1.6,0,0.00,,,0.00,WUHU216HW,2013-09-20 13:18:00,
2013-09-20 09:23:00,58.0,0.0,30.05,NNE,23,0.9,2.5,0,0.00,,,0.00,WUHU216HW,2013-09-20 13:23:00,
2013-09-20 09:28:00,59.4,0.0,30.05,NE,45,1.1,2.5,0,0.00,,,0.00,WUHU216HW,2013-09-20 13:28:00,
2013-09-20 09:33:00,60.8,0.0,30.06,NNW,338,1.3,2.5,0,0.00,,,0.00,WUHU216HW,2013-09-20 13:33:00,
2013-09-20 09:38:00,62.3,0.0,30.05,NW,315,1.1,2.5,0,0.00,,,0.00,WUHU216HW,2013-09-20 13:38:00,
2013-09-20 09:43:00,63.7,0.0,30.05,SSW,203,1.1,1.6,0,0.00,,,0.00,WUHU216HW,2013-09-20 13:43:00,
2013-09-20 09:48:00,65.2,0.0,30.06,North,0,0.4,4.9,0,0.00,,,0.00,WUHU216HW,2013-09-20 13:48:00,
2013-09-20 09:53:00,66.4,0.0,30.06,NE,45,1.6,4.9,0,0.00,,,0.00,WUHU216HW,2013-09-20 13:53:00,
2013-09-20 09:58:00,67.3,0.0,30.06,ENE,68,3.4,4.9,0,0.00,,,0.00,WUHU216HW,2013-09-20 13:58:00,
2013-09-20 10:03:00,68.0,0.0,30.06,NE,45,2.0,4.9,0,0.00,,,0.00,WUHU216HW,2013-09-20 14:03:00,
2013-09-20 10:08:00,68.8,0.0,30.06,NE,45,4.0,4.3,0,0.00,,,0.00,WUHU216HW,2013-09-20 14:08:00,
2013-09-20 10:13:00,69.7,0.0,30.06,East,90,3.4,4.7,0,0.00,,,0.00,WUHU216HW,2013-09-20 14:13:00,
2013-09-20 10:18:00,70.6,0.0,30.06,NNE,23,2.0,4.7,0,0.00,,,0.00,WUHU216HW,2013-09-20 14:18:00,
2013-09-20 10:23:00,71.3,0.0,30.05,East,90,2.5,4.3,0,0.00,,,0.00,WUHU216HW,2013-09-20 14:23:00,
2013-09-20 10:28:00,72.0,0.0,30.05,East,90,2.5,4.0,0,0.00,,,0.00,WUHU216HW,2013-09-20 14:28:00,
2013-09-20 10:33:00,72.4,0.0,30.06,SE,135,2.5,4.3,0,0.00,,,0.00,WUHU216HW,2013-09-20 14:33:00,
2013-09-20 10:38:00,72.5,0.0,30.06,SE,135,1.8,4.3,0,0.00,,,0.00,WUHU216HW,2013-09-20 14:38:00,
2013-09-20 10:43:00,72.9,0.0,30.06,ESE,113,2.5,3.6,0,0.00,,,0.00,WUHU216HW,2013-09-20 14:43:00,
2013-09-20 10:48:00,73.1,0.0,30.05,NE,45,3.1,3.8,0,0.00,,,0.00,WUHU216HW,2013-09-20 14:48:00,
2013-09-20 10:53:00,73.1,0.0,30.05,East,90,2.5,5.4,0,0.00,,,0.00,WUHU216HW,2013-09-20 14:53:00,
2013-09-20 10:58:00,73.4,0.0,30.05,ENE,68,1.6,6.3,0,0.00,,,0.00,WUHU216HW,2013-09-20 14:58:00,
2013-09-20 11:03:00,73.6,0.0,30.05,ENE,68,3.4,6.3,0,0.00,,,0.00,WUHU216HW,2013-09-20 15:03:00,
2013-09-20 11:08:00,73.8,0.0,30.05,ESE,113,2.7,4.5,0,0.00,,,0.00,WUHU216HW,2013-09-20 15:08:00,
2013-09-20 11:13:00,74.0,0.0,30.05,East,90,1.8,6.0,0,0.00,,,0.00,WUHU216HW,2013-09-20 15:13:00,
2013-09-20 11:18:00,74.0,0.0,30.05,SE,135,2.5,6.0,0,0.00,,,0.00,WUHU216HW,2013-09-20 15:18:00,
2013-09-20 11:23:00,74.3,0.0,30.05,ESE,113,3.6,4.7,0,0.00,,,0.00,WUHU216HW,2013-09-20 15:23:00,
2013-09-20 11:28:00,74.3,0.0,30.05,SSE,158,2.2,5.1,0,0.00,,,0.00,WUHU216HW,2013-09-20 15:28:00,
2013-09-20 11:34:00,74.9,0.0,30.04,ENE,68,1.1,5.1,0,0.00,,,0.00,WUHU216HW,2013-09-20 15:34:00,
2013-09-20 11:39:00,75.2,0.0,30.04,East,90,1.8,4.0,0,0.00,,,0.00,WUHU216HW,2013-09-20 15:39:00,
2013-09-20 11:44:00,75.2,0.0,30.04,ENE,68,2.5,4.0,0,0.00,,,0.00,WUHU216HW,2013-09-20 15:44:00,
2013-09-20 11:49:00,75.2,0.0,30.04,SE,135,4.3,5.8,0,0.00,,,0.00,WUHU216HW,2013-09-20 15:49:00,
2013-09-20 11:54:00,75.2,0.0,30.04,SSE,158,4.3,6.5,0,0.00,,,0.00,WUHU216HW,2013-09-20 15:54:00,
2013-09-20 11:59:00,75.6,0.0,30.04,SE,135,3.4,6.5,0,0.00,,,0.00,WUHU216HW,2013-09-20 15:59:00,
2013-09-20 12:04:00,76.0,0.0,30.04,East,90,1.8,4.3,0,0.00,,,0.00,WUHU216HW,2013-09-20 16:04:00,
2013-09-20 12:09:00,76.9,0.0,30.04,SE,135,3.4,5.4,0,0.00,,,0.00,WUHU216HW,2013-09-20 16:09:00,
2013-09-20 12:14:00,77.6,0.0,30.04,SE,135,1.8,5.4,0,0.00,,,0.00,WUHU216HW,2013-09-20 16:14:00,
2013-09-20 12:19:00,77.8,0.0,30.05,NNE,23,1.1,3.8,0,0.00,,,0.00,WUHU216HW,2013-09-20 16:19:00,
2013-09-20 12:24:00,77.9,0.0,30.04,ESE,113,2.7,2.7,0,0.00,,,0.00,WUHU216HW,2013-09-20 16:24:00,
2013-09-20 12:29:00,78.1,0.0,30.04,East,90,1.6,5.1,0,0.00,,,0.00,WUHU216HW,2013-09-20 16:29:00,
2013-09-20 12:34:00,78.5,0.0,30.04,SW,225,1.3,5.1,0,0.00,,,0.00,WUHU216HW,2013-09-20 16:34:00,
2013-09-20 12:39:00,78.8,0.0,30.03,SSE,158,3.1,4.3,0,0.00,,,0.00,WUHU216HW,2013-09-20 16:39:00,
2013-09-20 12:44:00,78.8,0.0,30.03,East,90,1.8,4.3,0,0.00,,,0.00,WUHU216HW,2013-09-20 16:44:00,
2013-09-20 12:49:00,78.3,0.0,30.03,SE,135,3.6,6.3,0,0.00,,,0.00,WUHU216HW,2013-09-20 16:49:00,
2013-09-20 12:54:00,78.1,0.0,30.03,SE,135,6.0,6.3,0,0.00,,,0.00,WUHU216HW,2013-09-20 16:54:00,
2013-09-20 12:59:00,78.1,0.0,30.03,ESE,113,4.3,6.3,0,0.00,,,0.00,WUHU216HW,2013-09-20 16:59:00,
2013-09-20 13:04:00,78.5,0.0,30.03,East,90,4.7,4.7,0,0.00,,,0.00,WUHU216HW,2013-09-20 17:04:00,
2013-09-20 13:09:00,78.3,0.0,30.02,East,90,2.2,4.7,0,0.00,,,0.00,WUHU216HW,2013-09-20 17:09:00,
2013-09-20 13:14:00,78.1,0.0,30.02,SE,135,3.1,4.0,0,0.00,,,0.00,WUHU216HW,2013-09-20 17:14:00,
2013-09-20 13:19:00,78.3,0.0,30.02,East,90,2.2,7.6,0,0.00,,,0.00,WUHU216HW,2013-09-20 17:19:00,
2013-09-20 13:24:00,78.7,0.0,30.02,South,180,0.4,7.6,0,0.00,,,0.00,WUHU216HW,2013-09-20 17:24:00,
2013-09-20 13:29:00,78.8,0.0,30.01,SE,135,4.0,4.0,0,0.00,,,0.00,WUHU216HW,2013-09-20 17:29:00,
2013-09-20 13:34:00,78.8,0.0,30.01,ESE,113,2.9,4.0,0,0.00,,,0.00,WUHU216HW,2013-09-20 17:34:00,
2013-09-20 13:39:00,79.0,0.0,30.01,South,180,3.6,4.0,0,0.00,,,0.00,WUHU216HW,2013-09-20 17:39:00,
2013-09-20 13:44:00,79.2,0.0,30.01,ESE,113,2.0,5.8,0,0.00,,,0.00,WUHU216HW,2013-09-20 17:44:00,
2013-09-20 13:49:00,78.5,0.0,30.01,SE,135,3.6,5.8,0,0.00,,,0.00,WUHU216HW,2013-09-20 17:49:00,
2013-09-20 13:54:00,78.1,0.0,30.00,East,90,1.8,7.4,0,0.00,,,0.00,WUHU216HW,2013-09-20 17:54:00,
2013-09-20 13:59:00,78.1,0.0,30.00,East,90,6.3,7.4,0,0.00,,,0.00,WUHU216HW,2013-09-20 17:59:00,
2013-09-20 14:04:00,77.9,0.0,30.00,NE,45,2.9,6.9,0,0.00,,,0.00,WUHU216HW,2013-09-20 18:04:00,
2013-09-20 14:09:00,77.6,0.0,30.00,ESE,113,1.8,6.9,0,0.00,,,0.00,WUHU216HW,2013-09-20 18:09:00,
2013-09-20 14:14:00,77.9,0.0,30.00,SSE,158,1.8,3.4,0,0.00,,,0.00,WUHU216HW,2013-09-20 18:14:00,
2013-09-20 14:19:00,78.3,0.0,29.99,ESE,113,3.8,4.7,0,0.00,,,0.00,WUHU216HW,2013-09-20 18:19:00,
2013-09-20 14:24:00,77.9,0.0,29.99,SE,135,3.8,5.4,0,0.00,,,0.00,WUHU216HW,2013-09-20 18:24:00,
2013-09-20 14:29:00,77.9,0.0,29.99,SSW,203,1.8,5.4,0,0.00,,,0.00,WUHU216HW,2013-09-20 18:29:00,
2013-09-20 14:34:00,78.5,0.0,29.99,SE,135,0.4,6.3,0,0.00,,,0.00,WUHU216HW,2013-09-20 18:34:00,
2013-09-20 14:39:00,78.8,0.0,29.99,ESE,113,2.9,6.3,0,0.00,,,0.00,WUHU216HW,2013-09-20 18:39:00,
2013-09-20 14:44:00,78.5,0.0,29.98,SE,135,2.7,5.8,0,0.00,,,0.00,WUHU216HW,2013-09-20 18:44:00,
2013-09-20 14:49:00,78.5,0.0,29.98,ESE,113,3.4,5.6,0,0.00,,,0.00,WUHU216HW,2013-09-20 18:49:00,
2013-09-20 14:54:00,78.5,0.0,29.98,SE,135,2.5,5.6,0,0.00,,,0.00,WUHU216HW,2013-09-20 18:54:00,
2013-09-20 14:59:00,78.8,0.0,29.98,SE,135,2.7,4.3,0,0.00,,,0.00,WUHU216HW,2013-09-20 18:59:00,
2013-09-20 15:04:00,79.0,0.0,29.98,SE,135,3.1,5.1,0,0.00,,,0.00,WUHU216HW,2013-09-20 19:04:00,
2013-09-20 15:09:00,79.4,0.0,29.98,East,90,4.3,5.1,0,0.00,,,0.00,WUHU216HW,2013-09-20 19:09:00,
2013-09-20 15:14:00,79.6,0.0,29.98,SE,135,2.7,4.3,0,0.00,,,0.00,WUHU216HW,2013-09-20 19:14:00,
2013-09-20 15:19:00,79.6,0.0,29.98,ESE,113,4.0,4.3,0,0.00,,,0.00,WUHU216HW,2013-09-20 19:19:00,
2013-09-20 15:24:00,79.6,0.0,29.98,SE,135,2.0,4.0,0,0.00,,,0.00,WUHU216HW,2013-09-20 19:24:00,
2013-09-20 15:29:00,79.7,0.0,29.98,SE,135,2.2,4.0,0,0.00,,,0.00,WUHU216HW,2013-09-20 19:29:00,
2013-09-20 15:34:00,79.7,0.0,29.98,ESE,113,4.0,4.0,0,0.00,,,0.00,WUHU216HW,2013-09-20 19:34:00,
2013-09-20 15:39:00,79.4,0.0,29.98,NE,45,2.2,4.0,0,0.00,,,0.00,WUHU216HW,2013-09-20 19:39:00,
2013-09-20 15:44:00,79.9,0.0,29.98,SE,135,3.6,4.0,0,0.00,,,0.00,WUHU216HW,2013-09-20 19:44:00,
2013-09-20 15:49:00,79.9,0.0,29.98,ENE,68,1.6,4.0,0,0.00,,,0.00,WUHU216HW,2013-09-20 19:49:00,
2013-09-20 15:54:00,80.1,0.0,29.98,ESE,113,4.5,4.7,0,0.00,,,0.00,WUHU216HW,2013-09-20 19:54:00,
2013-09-20 15:59:00,79.6,0.0,29.98,SE,135,1.6,4.7,0,0.00,,,0.00,WUHU216HW,2013-09-20 19:59:00,
2013-09-20 16:04:00,79.6,0.0,29.98,East,90,3.6,4.5,0,0.00,,,0.00,WUHU216HW,2013-09-20 20:04:00,
2013-09-20 16:09:00,79.6,0.0,29.98,ENE,68,1.8,4.0,0,0.00,,,0.00,WUHU216HW,2013-09-20 20:09:00,
2013-09-20 16:14:00,79.6,0.0,29.98,ESE,113,2.5,3.6,0,0.00,,,0.00,WUHU216HW,2013-09-20 20:14:00,
2013-09-20 16:19:00,79.4,0.0,29.98,ESE,113,0.7,3.4,0,0.00,,,0.00,WUHU216HW,2013-09-20 20:19:00,
2013-09-20 16:24:00,79.6,0.0,29.98,SE,135,2.5,5.4,0,0.00,,,0.00,WUHU216HW,2013-09-20 20:24:00,
2013-09-20 16:29:00,79.9,0.0,29.97,ESE,113,2.5,5.4,0,0.00,,,0.00,WUHU216HW,2013-09-20 20:29:00,
2013-09-20 16:34:00,79.6,0.0,29.97,ESE,113,5.4,5.4,0,0.00,,,0.00,WUHU216HW,2013-09-20 20:34:00,
2013-09-20 16:39:00,79.0,0.0,29.97,East,90,1.8,5.4,0,0.00,,,0.00,WUHU216HW,2013-09-20 20:39:00,
2013-09-20 16:44:00,78.7,0.0,29.97,ESE,113,2.7,5.4,0,0.00,,,0.00,WUHU216HW,2013-09-20 20:44:00,
2013-09-20 16:49:00,78.3,0.0,29.97,SE,135,1.6,3.4,0,0.00,,,0.00,WUHU216HW,2013-09-20 20:49:00,
2013-09-20 16:54:00,78.5,0.0,29.97,SSE,158,1.1,3.4,0,0.00,,,0.00,WUHU216HW,2013-09-20 20:54:00,
2013-09-20 16:59:00,78.8,0.0,29.97,SE,135,2.5,4.0,0,0.00,,,0.00,WUHU216HW,2013-09-20 20:59:00,
2013-09-20 17:04:00,78.8,0.0,29.98,NE,45,2.7,4.3,0,0.00,,,0.00,WUHU216HW,2013-09-20 21:04:00,
2013-09-20 17:09:00,79.0,0.0,29.98,ESE,113,1.3,4.3,0,0.00,,,0.00,WUHU216HW,2013-09-20 21:09:00,
2013-09-20 17:14:00,78.5,0.0,29.97,ESE,113,2.2,2.7,0,0.00,,,0.00,WUHU216HW,2013-09-20 21:14:00,
2013-09-20 17:19:00,77.9,0.0,29.98,SE,135,2.5,3.1,0,0.00,,,0.00,WUHU216HW,2013-09-20 21:19:00,
2013-09-20 17:24:00,77.2,0.0,29.98,ESE,113,2.2,3.1,0,0.00,,,0.00,WUHU216HW,2013-09-20 21:24:00,
2013-09-20 17:29:00,76.0,0.0,29.98,SE,135,1.8,2.7,0,0.00,,,0.00,WUHU216HW,2013-09-20 21:29:00,
2013-09-20 17:34:00,74.9,0.0,29.97,ESE,113,1.3,4.9,0,0.00,,,0.00,WUHU216HW,2013-09-20 21:34:00,
2013-09-20 17:39:00,74.0,0.0,29.97,SSE,158,0.4,4.9,0,0.00,,,0.00,WUHU216HW,2013-09-20 21:39:00,
2013-09-20 17:44:00,73.3,0.0,29.97,East,90,0.0,2.2,0,0.00,,,0.00,WUHU216HW,2013-09-20 21:44:00,
2013-09-20 17:49:00,72.5,0.0,29.98,SE,135,1.1,2.7,0,0.00,,,0.00,WUHU216HW,2013-09-20 21:49:00,
2013-09-20 17:54:00,72.0,0.0,29.98,ENE,68,0.7,2.7,0,0.00,,,0.00,WUHU216HW,2013-09-20 21:54:00,
2013-09-20 17:59:00,71.3,0.0,29.98,NE,45,2.2,2.2,0,0.00,,,0.00,WUHU216HW,2013-09-20 21:59:00,
2013-09-20 18:04:00,70.9,0.0,29.98,ESE,113,0.7,2.7,0,0.00,,,0.00,WUHU216HW,2013-09-20 22:04:00,
2013-09-20 18:09:00,70.4,0.0,29.98,NE,45,1.1,2.7,0,0.00,,,0.00,WUHU216HW,2013-09-20 22:09:00,
2013-09-20 18:14:00,69.8,0.0,29.98,ENE,68,0.2,1.1,0,0.00,,,0.00,WUHU216HW,2013-09-20 22:14:00,
2013-09-20 18:19:00,69.5,0.0,29.98,East,90,0.4,1.3,0,0.00,,,0.00,WUHU216HW,2013-09-20 22:19:00,
2013-09-20 18:24:00,68.9,0.0,29.99,NE,45,2.5,3.4,0,0.00,,,0.00,WUHU216HW,2013-09-20 22:24:00,
2013-09-20 18:29:00,68.4,0.0,29.98,ESE,113,0.4,3.4,0,0.00,,,0.00,WUHU216HW,2013-09-20 22:29:00,
2013-09-20 18:34:00,67.9,0.0,29.98,ESE,113,1.1,2.0,0,0.00,,,0.00,WUHU216HW,2013-09-20 22:34:00,
2013-09-20 18:39:00,67.3,0.0,29.98,SE,135,1.3,1.3,0,0.00,,,0.00,WUHU216HW,2013-09-20 22:39:00,
2013-09-20 18:44:00,66.6,0.0,29.98,SE,135,2.0,3.1,0,0.00,,,0.00,WUHU216HW,2013-09-20 22:44:00,
2013-09-20 18:49:00,66.1,0.0,29.98,SE,135,3.4,3.4,0,0.00,,,0.00,WUHU216HW,2013-09-20 22:49:00,
2013-09-20 18:54:00,65.3,0.0,29.98,SE,135,1.3,3.4,0,0.00,,,0.00,WUHU216HW,2013-09-20 22:54:00,
2013-09-20 18:59:00,64.8,0.0,29.98,SE,135,1.1,3.8,0,0.00,,,0.00,WUHU216HW,2013-09-20 22:59:00,
2013-09-20 19:04:00,64.4,0.0,29.98,SE,135,1.6,3.8,0,0.00,,,0.00,WUHU216HW,2013-09-20 23:04:00,
2013-09-20 19:09:00,63.9,0.0,29.98,SE,135,2.5,2.5,0,0.00,,,0.00,WUHU216HW,2013-09-20 23:09:00,
2013-09-20 19:14:00,63.4,0.0,29.98,SE,135,2.5,3.6,0,0.00,,,0.00,WUHU216HW,2013-09-20 23:14:00,
2013-09-20 19:19:00,63.0,0.0,29.98,ESE,113,1.3,3.6,0,0.00,,,0.00,WUHU216HW,2013-09-20 23:19:00,
2013-09-20 19:24:00,62.6,0.0,29.99,SE,135,2.2,3.4,0,0.00,,,0.00,WUHU216HW,2013-09-20 23:24:00,
2013-09-20 19:29:00,62.1,0.0,29.99,SE,135,2.5,3.4,0,0.00,,,0.00,WUHU216HW,2013-09-20 23:29:00,
2013-09-20 19:34:00,61.7,0.0,29.99,ESE,113,2.0,2.5,0,0.00,,,0.00,WUHU216HW,2013-09-20 23:34:00,
2013-09-20 19:39:00,61.4,0.0,29.99,SE,135,1.3,2.5,0,0.00,,,0.00,WUHU216HW,2013-09-20 23:39:00,
2013-09-20 19:44:00,61.0,0.0,30.00,NE,45,1.1,2.0,0,0.00,,,0.00,WUHU216HW,2013-09-20 23:44:00,
2013-09-20 19:49:00,60.7,0.0,30.00,ENE,68,0.2,1.3,0,0.00,,,0.00,WUHU216HW,2013-09-20 23:49:00,
2013-09-20 19:54:00,60.3,0.0,30.00,East,90,0.4,1.1,0,0.00,,,0.00,WUHU216HW,2013-09-20 23:54:00,
2013-09-20 19:59:00,60.1,0.0,30.00,East,90,0.0,0.4,0,0.00,,,0.00,WUHU216HW,2013-09-20 23:59:00,
2013-09-20 20:04:00,59.8,0.0,30.00,East,90,0.0,0.4,0,0.00,,,0.00,WUHU216HW,2013-09-21 00:04:00,
2013-09-20 20:09:00,59.4,0.0,29.99,ESE,113,0.4,0.9,0,0.00,,,0.00,WUHU216HW,2013-09-21 00:09:00,
2013-09-20 20:14:00,59.0,0.0,30.00,SE,135,0.7,1.6,0,0.00,,,0.00,WUHU216HW,2013-09-21 00:14:00,
2013-09-20 20:19:00,58.7,0.0,29.99,SE,135,0.4,1.8,0,0.00,,,0.00,WUHU216HW,2013-09-21 00:19:00,
2013-09-20 20:24:00,58.5,0.0,30.00,ESE,113,0.2,1.8,0,0.00,,,0.00,WUHU216HW,2013-09-21 00:24:00,
2013-09-20 20:29:00,58.1,0.0,30.00,East,90,0.2,0.9,0,0.00,,,0.00,WUHU216HW,2013-09-21 00:29:00,
2013-09-20 20:34:00,58.0,0.0,30.00,East,90,0.0,0.9,0,0.00,,,0.00,WUHU216HW,2013-09-21 00:34:00,
2013-09-20 20:39:00,57.8,0.0,30.00,SE,135,0.7,0.9,0,0.00,,,0.00,WUHU216HW,2013-09-21 00:39:00,
2013-09-20 20:44:00,57.6,0.0,30.00,SE,135,0.4,0.9,0,0.00,,,0.00,WUHU216HW,2013-09-21 00:44:00,
2013-09-20 20:49:00,57.2,0.0,30.00,East,90,0.0,0.9,0,0.00,,,0.00,WUHU216HW,2013-09-21 00:49:00,
2013-09-20 20:54:00,57.1,0.0,29.99,East,90,0.0,0.4,0,0.00,,,0.00,WUHU216HW,2013-09-21 00:54:00,
2013-09-20 20:59:00,56.9,0.0,29.99,ESE,113,0.4,0.7,0,0.00,,,0.00,WUHU216HW,2013-09-21 00:59:00,
2013-09-20 21:04:00,56.7,0.0,29.99,ESE,113,0.0,0.7,0,0.00,,,0.00,WUHU216HW,2013-09-21 01:04:00,
2013-09-20 21:09:00,56.5,0.0,29.99,ESE,113,0.0,0.7,0,0.00,,,0.00,WUHU216HW,2013-09-21 01:09:00,
2013-09-20 21:14:00,56.5,0.0,29.99,ESE,113,0.0,0.0,0,0.00,,,0.00,WUHU216HW,2013-09-21 01:14:00,
2013-09-20 21:19:00,56.3,0.0,29.99,ESE,113,0.0,0.7,0,0.00,,,0.00,WUHU216HW,2013-09-21 01:19:00,
2013-09-20 21:24:00,56.2,0.0,29.99,ESE,113,0.0,0.7,0,0.00,,,0.00,WUHU216HW,2013-09-21 01:24:00,
2013-09-20 21:29:00,55.8,0.0,29.99,ESE,113,0.9,0.9,0,0.00,,,0.00,WUHU216HW,2013-09-21 01:29:00,
2013-09-20 21:34:00,55.8,0.0,29.99,ESE,113,0.4,0.9,0,0.00,,,0.00,WUHU216HW,2013-09-21 01:34:00,
2013-09-20 21:39:00,55.8,0.0,30.00,ESE,113,0.0,0.9,0,0.00,,,0.00,WUHU216HW,2013-09-21 01:39:00,
2013-09-20 21:44:00,55.8,0.0,29.99,ESE,113,0.0,0.7,0,0.00,,,0.00,WUHU216HW,2013-09-21 01:44:00,
2013-09-20 21:49:00,55.8,0.0,29.99,ESE,113,0.0,0.2,0,0.00,,,0.00,WUHU216HW,2013-09-21 01:49:00,
2013-09-20 21:55:00,55.6,0.0,29.99,ESE,113,0.0,0.2,0,0.00,,,0.00,WUHU216HW,2013-09-21 01:55:00,
2013-09-20 22:00:00,55.6,0.0,29.99,NW,315,0.7,1.1,0,0.00,,,0.00,WUHU216HW,2013-09-21 02:00:00,
2013-09-20 22:05:00,55.8,0.0,29.99,NW,315,0.0,1.1,0,0.00,,,0.00,WUHU216HW,2013-09-21 02:05:00,
2013-09-20 22:10:00,55.8,0.0,29.99,NW,315,0.0,0.7,0,0.00,,,0.00,WUHU216HW,2013-09-21 02:10:00,
2013-09-20 22:15:00,56.0,0.0,29.99,NW,315,0.0,0.9,0,0.00,,,0.00,WUHU216HW,2013-09-21 02:15:00,
2013-09-20 22:20:00,56.2,0.0,29.98,NW,315,0.0,0.9,0,0.00,,,0.00,WUHU216HW,2013-09-21 02:20:00,
2013-09-20 22:25:00,56.2,0.0,29.98,NE,45,1.1,1.8,0,0.00,,,0.00,WUHU216HW,2013-09-21 02:25:00,
2013-09-20 22:30:00,56.3,0.0,29.98,NNE,23,0.0,1.8,0,0.00,,,0.00,WUHU216HW,2013-09-21 02:30:00,
2013-09-20 22:35:00,56.5,0.0,29.98,NNE,23,0.0,1.8,0,0.00,,,0.00,WUHU216HW,2013-09-21 02:35:00,
2013-09-20 22:40:00,56.7,0.0,29.98,NNE,23,0.0,1.8,0,0.00,,,0.00,WUHU216HW,2013-09-21 02:40:00,
2013-09-20 22:45:00,56.9,0.0,29.98,NNE,23,0.0,1.3,0,0.00,,,0.00,WUHU216HW,2013-09-21 02:45:00,
2013-09-20 22:50:00,56.9,0.0,29.98,WNW,293,0.4,1.1,0,0.00,,,0.00,WUHU216HW,2013-09-21 02:50:00,
2013-09-20 22:55:00,56.9,0.0,29.98,WNW,293,0.0,0.9,0,0.00,,,0.00,WUHU216HW,2013-09-21 02:55:00,
2013-09-20 23:00:00,56.9,0.0,29.98,West,270,0.2,0.9,0,0.00,,,0.00,WUHU216HW,2013-09-21 03:00:00,
2013-09-20 23:05:00,56.9,0.0,29.98,WNW,293,0.7,1.1,0,0.00,,,0.00,WUHU216HW,2013-09-21 03:05:00,
2013-09-20 23:10:00,56.9,0.0,29.98,WNW,293,0.2,1.1,0,0.00,,,0.00,WUHU216HW,2013-09-21 03:10:00,
2013-09-20 23:15:00,56.9,0.0,29.98,ENE,68,0.4,1.1,0,0.00,,,0.00,WUHU216HW,2013-09-21 03:15:00,
2013-09-20 23:20:00,56.9,0.0,29.98,ENE,68,0.4,1.1,0,0.00,,,0.00,WUHU216HW,2013-09-21 03:20:00,
2013-09-20 23:25:00,56.7,0.0,29.98,WNW,293,0.7,1.1,0,0.00,,,0.00,WUHU216HW,2013-09-21 03:25:00,
2013-09-20 23:30:00,56.7,0.0,29.98,NW,315,0.7,1.3,0,0.00,,,0.00,WUHU216HW,2013-09-21 03:30:00,
2013-09-20 23:35:00,56.5,0.0,29.98,NNE,23,0.9,1.3,0,0.00,,,0.00,WUHU216HW,2013-09-21 03:35:00,
2013-09-20 23:40:00,56.5,0.0,29.98,NNE,23,1.1,1.6,0,0.00,,,0.00,WUHU216HW,2013-09-21 03:40:00,
2013-09-20 23:45:00,56.5,0.0,29.98,NE,45,1.1,1.6,0,0.00,,,0.00,WUHU216HW,2013-09-21 03:45:00,
2013-09-20 23:50:00,56.5,0.0,29.98,NNE,23,0.0,1.3,0,0.00,,,0.00,WUHU216HW,2013-09-21 03:50:00,
2013-09-20 23:55:00,56.3,0.0,29.98,NE,45,0.2,1.3,0,0.00,,,0.00,WUHU216HW,2013-09-21 03:55:00,